YAHSAT 1A

Last updated on Sat Apr 13 2024 01:02:37 GMT+0100 (British Summer Time)

1 37393U 11016B 24103.24472288 .00000092 00000+0 00000+0 0 9990 2 37393 0.0170 226.3916 0002332 167.1822 307.9407 1.00272166 34429
UTC large
Height (km)
Speed (km/s)
/
Latitude / Longitude
Inclination (degrees)
Orbital Period (minutes)
Azimuth
Elevation
Range (km)
Doppler Factor

Next 0 passes for location: London (51.5072 / 0.1276)

Sorry there are no passes over London.